Temperature
17 17 17 16 16 16 16 16 15 15 15 15 14 14 14 13 13 13 13 13 13 13 13 13 13 13 13 13 13 13 13 12 12 12 12 12 12 11 11 11 11 10 10
17 17 17 16 16 16 16 15 15 15 15 14 14 14 14 13 13 13 13 13 13 13 13 13 13 13 13 13 13 13 12 12 12 12 12 11 11 11 11 10 10 10 9
17 16 16 16 16 16 16 15 15 15 14 14 14 14 13 13 13 13 13 13 13 13 13 13 13 12 12 12 12 12 12 12 12 11 11 11 11 11 10 10 10 9 9
16 16 16 16 16 15 15 15 15 14 14 14 14 13 13 13 13 13 13 13 13 13 12 12 12 12 12 12 12 12 12 11 11 11 11 10 10 10 10 10 9 9 9
15 15 15 15 15 15 15 14 14 14 14 13 13 13 12 12 12 12 12 12 12 12 12 12 12 12 12 11 11 11 11 11 11 10 10 10 10 9 9 9 9 8 8
15 15 15 15 14 14 14 14 14 13 13 13 12 12 12 12 12 12 12 12 12 12 12 12 12 11 11 11 11 10 10 10 10 10 9 9 9 9 8 8 8 7 7
14 14 14 14 14 14 14 14 13 13 13 12 12 11 11 11 12 12 12 12 12 12 12 11 11 11 11 10 10 10 9 9 9 9 8 8 8 8 7 7 6 6 6
14 14 14 14 14 13 13 13 13 12 12 12 11 11 11 11 12 12 12 12 12 12 11 11 11 11 10 10 10 9 9 8 8 7 7 7 7 6 6 5 5 5 5
14 14 14 14 13 13 13 13 12 12 12 12 11 11 11 11 12 12 12 12 12 12 11 11 11 10 10 9 9 8 8 7 7 6 6 6 6 5 5 5 4 4 4
14 14 13 13 13 13 13 12 12 12 12 11 11 11 11 11 11 11 11 12 11 11 11 11 10 10 9 9 8 8 7 6 6 6 5 5 4 4 4 4 4 3 3
14 13 13 13 13 13 12 12 12 12 11 11 11 11 11 10 10 10 10 11 11 11 11 10 10 9 9 8 7 7 6 6 5 4 4 4 4 3 3 3 3 3 3
13 13 13 13 12 12 12 12 12 11 11 11 11 11 11 10 10 10 10 10 10 10 10 9 9 9 8 8 7 6 5 5 4 4 3 3 3 3 3 3 3 2 2
13 13 12 12 12 12 12 11 11 11 11 11 11 10 10 10 10 10 10 9 9 9 9 9 8 8 7 7 6 6 5 4 4 4 3 2 2 2 2 2 2 2 1
12 12 12 11 11 11 11 11 11 10 10 10 10 10 10 10 9 9 9 9 8 8 8 8 8 7 7 6 6 5 4 3 3 3 2 2 2 2 2 1 1 1 1
11 11 11 11 11 10 10 10 10 10 10 10 9 9 9 9 9 9 8 8 7 7 7 7 7 6 6 5 4 4 3 3 2 2 1 1 1 1 1 0 0 -0 -0
10 10 10 10 10 10 9 9 9 9 9 9 8 8 8 8 8 8 8 7 7 6 6 6 5 5 5 4 4 3 3 2 2 1 1 1 1 0 -0 -0 -1 -1 -1
9 9 9 9 9 9 9 8 8 8 8 8 8 8 7 7 7 7 7 6 6 6 5 5 4 4 3 3 3 2 2 1 1 1 0 -0 -0 -1 -1 -1 -1 -2 -2
8 8 8 8 8 8 8 8 7 7 7 7 7 7 6 6 6 6 6 5 5 5 4 4 3 3 2 2 2 1 1 0 0 -0 -1 -1 -1 -1 -2 -2 -2 -2 -2
7 7 7 7 7 7 7 7 7 6 6 6 6 6 6 5 5 5 5 4 4 4 3 3 2 2 1 1 1 0 0 -0 -1 -1 -1 -1 -2 -2 -2 -2 -3 -3 -3
6 6 6 6 6 6 6 6 6 5 5 5 5 5 5 4 4 4 3 3 3 2 2 2 1 1 0 -0 -1 -1 -1 -1 -2 -2 -2 -2 -2 -3 -3 -3 -3 -2 -3
5 5 5 5 5 5 5 5 5 5 4 4 4 4 3 3 3 2 2 2 1 1 1 0 -0 -1 -1 -1 -2 -2 -2 -2 -3 -3 -3 -3 -3 -3 -3 -3 -3 -3 -3
4 4 4 4 4 4 4 4 4 4 3 3 3 3 2 2 2 1 1 0 0 -0 -1 -1 -1 -2 -2 -3 -3 -3 -4 -4 -3 -4 -3 -3 -3 -3 -3 -3 -3 -3 -3
4 4 4 4 4 3 3 3 3 3 2 2 2 2 1 1 0 0 -0 -0 -1 -1 -2 -2 -2 -3 -3 -4 -4 -4 -4 -5 -4 -5 -5 -3 -3 -3 -3 -3 -3 -3 -3
3 3 3 3 2 2 2 2 2 2 1 1 1 1 0 -0 -1 -1 -1 -1 -2 -2 -3 -3 -3 -4 -4 -5 -5 -5 -5 -5 -5 -5 -5 -4 -3 -3 -3 -3 -3 -3 -3
2 2 2 1 1 1 1 1 1 0 0 0 -0 -1 -1 -1 -2 -2 -2 -2 -2 -3 -3 -4 -4 -4 -5 -5 -5 -6 -6 -6 -5 -5 -5 -5 -4 -4 -3 -2 -3 -3 -4
1 1 1 0 0 0 -0 -0 -0 -0 -0 -1 -1 -1 -2 -2 -3 -3 -3 -3 -3 -4 -4 -4 -4 -5 -5 -5 -6 -6 -6 -6 -6 -6 -6 -6 -6 -6 -5 -3 -2 -3 -3
Wind_Speed
7 9 9 11 12 12 10 9 8 8 7 8 8 8 8 10 13 13 14 16 15 13 12 11 11 10 10 9 8 7 7 6 6 6 5 5 5 5 5 6 6 6 6
11 10 8 10 11 13 12 11 10 8 7 7 6 8 9 11 13 14 14 16 16 16 14 13 12 12 11 10 9 8 7 6 5 5 4 4 3 3 3 4 4 4 5
15 12 8 8 11 14 13 11 9 7 5 5 5 7 8 11 13 14 15 16 16 17 16 15 14 13 13 12 11 9 8 7 5 4 3 3 2 1 1 2 2 3 3
17 14 8 8 13 14 11 6 4 5 5 5 4 4 5 8 11 14 15 16 16 16 17 17 16 15 14 14 13 11 10 8 7 5 4 3 2 1 1 1 2 3 3
18 15 10 10 14 10 8 6 6 5 5 5 5 4 4 4 7 11 12 15 17 18 18 18 18 18 17 16 15 13 12 10 8 7 6 4 3 3 3 3 3 4 4
16 15 10 10 12 6 7 6 6 5 5 5 4 4 4 4 5 6 10 13 16 18 19 19 18 18 19 18 17 15 14 12 10 9 7 6 5 4 4 5 5 6 6
14 12 7 8 8 8 9 8 6 6 5 3 2 2 3 4 6 6 7 8 11 16 17 18 18 17 17 19 19 17 15 14 12 10 9 7 6 6 6 7 7 7 8
12 11 8 8 8 8 8 9 7 5 5 5 4 2 3 4 5 6 6 7 8 11 13 16 17 18 18 17 18 18 16 14 13 11 10 9 8 7 8 8 9 9 9
10 10 10 8 8 9 9 10 9 9 7 6 5 5 4 7 4 3 4 5 5 5 6 10 13 16 16 16 16 16 14 13 12 12 11 9 9 9 9 10 10 11 11
7 9 9 9 8 8 9 10 10 9 8 7 5 5 5 4 4 3 3 3 4 5 5 6 9 11 13 14 14 14 13 12 12 11 10 10 10 11 11 11 11 12 12
4 6 7 6 7 8 9 9 9 10 9 9 7 5 6 4 4 4 5 3 2 3 3 4 5 8 11 12 13 14 14 14 13 13 12 12 12 12 12 12 12 12 13
3 4 5 4 5 6 7 8 9 9 9 9 8 7 6 5 6 7 9 6 4 2 2 2 3 4 7 9 11 13 14 14 14 13 13 13 13 12 12 13 13 14 14
3 4 4 4 5 5 5 5 6 7 8 8 9 8 7 7 4 4 6 5 4 2 1 1 1 3 5 7 9 13 13 14 13 13 14 14 14 13 13 13 14 14 15
3 3 3 4 3 3 3 3 4 4 4 5 6 6 5 5 4 4 4 4 3 3 2 3 0 2 4 6 9 11 11 13 13 12 13 13 13 13 13 14 14 15 16
1 1 1 2 2 2 2 2 2 2 2 2 2 3 3 2 2 2 2 3 5 5 5 3 2 1 3 4 6 7 7 9 10 11 12 13 13 13 14 15 15 16 16
2 1 1 1 1 1 1 1 1 1 2 1 1 2 1 1 1 1 1 1 2 4 3 1 1 1 2 3 6 6 6 8 9 11 12 13 13 14 14 15 15 16 16
4 4 3 3 4 3 3 3 3 3 3 3 3 3 3 3 3 2 2 2 1 1 2 1 1 1 1 1 1 3 3 5 6 9 12 13 13 14 15 15 16 16 17
5 5 5 5 6 5 5 5 5 5 5 5 4 5 4 4 4 3 3 3 2 2 1 2 1 1 1 1 1 1 2 4 5 8 11 12 13 14 15 15 15 16 17
7 7 7 7 7 6 7 7 6 7 7 6 6 5 5 5 5 4 4 3 2 3 3 2 1 1 1 0 0 1 1 2 4 7 10 12 13 13 14 15 16 16 17
7 7 7 7 7 7 7 7 7 8 8 8 7 6 5 5 5 4 4 4 3 3 3 3 2 1 1 1 1 1 2 2 3 6 8 9 10 13 14 16 16 16 16
7 7 7 7 7 6 6 7 7 8 8 8 7 6 6 7 7 5 4 3 3 3 2 2 1 1 0 1 1 1 2 3 3 2 2 4 8 10 13 15 15 16 16
7 7 7 7 7 7 10 11 9 7 7 7 6 6 6 6 7 7 7 5 4 3 2 1 1 0 1 1 1 1 1 2 3 2 2 5 5 6 10 12 14 16 16
7 7 7 7 7 8 11 11 11 7 6 6 5 4 4 4 6 4 5 7 6 5 3 1 1 2 2 2 2 2 3 3 4 3 3 5 4 6 9 12 16 17 17
6 6 6 6 7 8 11 11 11 8 6 6 5 4 4 3 2 3 4 3 3 3 3 1 2 3 4 4 4 4 4 4 4 4 4 4 4 5 7 12 16 15 13
5 5 5 6 6 6 9 9 9 5 5 5 4 3 3 1 2 3 3 2 2 3 4 4 3 4 6 7 5 1 1 2 4 3 3 3 3 4 5 6 9 10 11
5 5 5 4 4 4 6 7 7 4 4 3 3 3 2 1 2 2 2 0 2 3 3 3 4 5 5 6 5 1 3 2 3 4 2 2 3 3 5 4 4 8 11
Wind_Direction
179 182 185 186 189 191 194 199 206 215 228 239 238 223 207 195 190 186 186 183 181 179 179 180 180 179 175 170 165 158 151 144 135 126 117 106 95 87 80 73 65 59 54
186 187 189 193 198 201 204 206 211 214 222 226 229 223 209 196 193 190 189 189 188 186 188 190 191 191 189 185 181 176 171 165 157 147 136 124 108 91 77 67 58 48 40
193 191 192 198 204 207 208 211 217 218 221 221 221 216 205 197 195 194 193 193 194 194 196 199 199 199 199 197 194 190 187 184 179 174 166 156 144 124 80 45 28 20 14
197 194 196 202 204 205 204 202 203 210 222 220 219 217 204 198 199 199 198 198 197 199 204 206 206 206 207 207 205 201 198 196 196 196 197 197 199 215 267 322 335 340 340
200 198 201 203 200 200 202 206 205 200 213 221 222 221 214 204 203 203 203 205 204 204 205 209 209 210 210 212 213 210 206 205 205 208 212 219 231 251 271 285 297 306 312
202 200 203 203 197 198 204 203 203 205 206 205 217 229 233 230 214 208 209 210 211 211 209 208 209 211 211 213 217 216 214 210 210 215 219 225 237 256 272 280 287 293 299
206 203 205 201 199 206 209 204 199 206 212 175 178 267 289 255 236 227 215 211 214 214 214 212 210 207 210 214 218 220 220 217 216 218 222 229 241 256 270 278 285 290 295
213 212 209 210 207 210 212 208 201 201 205 180 173 186 270 293 258 230 217 218 218 212 213 214 212 209 208 209 213 218 221 222 223 224 226 234 244 257 268 276 282 287 290
218 218 218 214 213 212 218 216 208 205 213 207 194 178 195 230 264 274 238 227 215 210 215 213 213 212 210 208 208 212 215 219 228 235 237 241 251 260 266 272 279 285 289
231 229 225 219 218 219 222 220 214 212 207 213 217 222 213 181 197 258 273 241 217 215 214 211 209 210 208 206 204 201 203 210 225 235 243 250 257 264 270 274 280 285 290
241 240 235 228 226 223 225 223 217 214 214 216 208 203 219 221 209 217 256 257 249 230 219 214 204 201 202 200 198 198 200 208 224 237 246 252 260 267 273 280 284 288 291
247 252 249 240 235 231 228 227 224 219 221 220 218 209 199 198 204 212 235 235 230 226 210 207 201 195 193 191 194 196 201 211 226 238 248 255 261 267 272 277 282 288 290
248 257 248 247 245 241 237 232 226 227 224 222 223 223 221 224 204 203 223 229 224 226 241 219 205 184 184 176 185 191 201 212 223 234 247 257 265 273 280 284 286 289 292
245 253 248 248 252 249 240 229 225 227 224 224 227 222 222 227 216 209 207 204 224 238 242 237 178 177 175 174 183 189 204 217 227 236 249 263 274 280 282 283 285 286 288
260 260 249 254 262 256 240 213 209 215 195 203 216 211 216 216 198 210 205 198 210 235 243 213 193 157 162 170 187 191 200 218 233 245 255 265 272 277 279 280 282 283 284
14 25 22 13 356 5 12 106 114 111 115 107 119 124 125 106 89 87 147 178 209 223 238 136 151 113 150 168 186 184 201 222 241 255 263 268 273 275 277 279 281 282 282
39 48 51 57 57 52 52 73 77 81 93 85 81 98 94 88 95 86 85 90 82 158 216 107 71 72 123 143 165 176 207 233 250 264 271 274 277 278 279 280 281 281 281
47 51 57 62 60 56 58 70 76 77 82 82 79 85 86 90 88 82 88 91 89 78 140 162 104 82 128 178 190 221 247 258 262 271 277 281 283 284 283 282 282 282 282
57 55 60 63 61 60 63 66 73 75 76 77 79 87 91 95 88 80 83 84 80 73 74 113 108 63 47 74 96 286 277 289 287 285 287 287 286 286 287 288 288 287 286
66 63 64 67 66 66 67 71 76 77 76 72 72 76 78 86 96 96 86 82 83 80 80 92 89 70 49 36 72 328 309 302 290 292 289 288 290 294 294 293 292 292 290
72 71 72 70 69 71 75 81 81 84 84 81 72 69 73 84 91 94 99 100 97 89 84 82 85 66 26 5 310 294 289 305 291 278 294 290 293 290 290 291 292 289 286
73 73 72 72 70 75 86 89 91 85 85 83 77 65 66 67 76 80 86 89 92 98 112 121 132 196 259 252 246 261 282 322 302 288 295 286 274 275 278 281 285 288 288
79 76 73 75 76 81 86 89 91 89 83 80 76 70 66 64 65 61 65 58 45 42 50 141 186 230 233 229 218 248 247 241 252 265 290 284 268 273 278 282 292 292 290
86 83 79 75 75 81 88 91 92 82 78 72 71 75 79 56 54 82 77 54 29 10 355 10 207 228 234 231 220 222 235 258 263 255 227 269 284 275 286 286 290 290 289
92 87 84 80 77 79 89 94 93 82 78 65 59 67 82 39 27 63 85 52 3 334 338 338 316 290 283 287 276 229 255 282 292 280 224 241 285 294 287 282 284 289 293
106 99 90 83 84 79 95 99 101 94 86 66 43 30 30 15 1 23 109 134 296 289 301 330 337 337 334 326 324 253 198 221 261 283 259 246 281 318 309 282 262 270 278
Height
1557 1558 1560 1561 1562 1563 1564 1565 1566 1567 1568 1568 1568 1568 1568 1569 1569 1569 1569 1569 1569 1568 1568 1567 1567 1566 1565 1565 1564 1564 1564 1563 1562 1562 1561 1561 1560 1559 1558 1558 1557 1556 1555
1555 1556 1558 1559 1560 1561 1563 1564 1564 1565 1566 1566 1566 1566 1566 1567 1567 1567 1567 1567 1567 1566 1566 1566 1565 1565 1564 1564 1563 1563 1563 1562 1562 1561 1560 1560 1559 1559 1558 1557 1556 1555 1555
1553 1554 1555 1557 1558 1559 1560 1561 1562 1562 1563 1563 1563 1564 1564 1564 1564 1564 1565 1565 1565 1564 1564 1564 1563 1563 1562 1562 1562 1561 1561 1561 1560 1560 1559 1558 1558 1557 1557 1556 1555 1554 1553
1550 1552 1553 1554 1555 1556 1557 1558 1559 1559 1560 1560 1560 1561 1561 1561 1561 1562 1562 1562 1562 1562 1562 1561 1561 1561 1560 1560 1560 1559 1559 1559 1558 1558 1557 1557 1556 1555 1555 1554 1553 1553 1552
1547 1548 1549 1551 1552 1553 1554 1554 1555 1556 1556 1557 1557 1558 1558 1558 1558 1558 1558 1558 1558 1558 1558 1558 1558 1558 1558 1557 1557 1557 1556 1556 1555 1555 1555 1554 1554 1553 1553 1552 1551 1550 1550
1544 1545 1546 1547 1548 1549 1550 1550 1551 1552 1552 1553 1554 1554 1554 1554 1554 1554 1554 1554 1554 1554 1554 1554 1554 1554 1554 1554 1554 1553 1553 1553 1552 1552 1551 1551 1551 1550 1550 1549 1549 1548 1547
1540 1541 1542 1543 1544 1544 1545 1546 1547 1548 1548 1549 1550 1550 1549 1549 1549 1549 1549 1549 1549 1549 1549 1549 1549 1549 1550 1550 1550 1550 1549 1549 1548 1548 1548 1547 1547 1546 1546 1546 1545 1545 1544
1536 1537 1538 1538 1539 1540 1541 1542 1542 1543 1543 1545 1545 1545 1544 1544 1542 1543 1543 1543 1543 1543 1543 1543 1544 1544 1544 1545 1545 1545 1545 1545 1544 1544 1543 1543 1543 1542 1542 1542 1541 1541 1541
1531 1532 1533 1534 1534 1535 1535 1536 1537 1538 1538 1539 1540 1541 1539 1536 1537 1536 1536 1536 1536 1537 1537 1537 1537 1538 1538 1539 1539 1539 1540 1540 1539 1539 1539 1538 1538 1538 1537 1537 1537 1537 1536
1526 1527 1527 1528 1529 1529 1530 1530 1531 1532 1533 1533 1534 1534 1534 1533 1533 1530 1531 1531 1531 1530 1531 1531 1531 1531 1532 1532 1533 1533 1533 1534 1534 1534 1534 1533 1533 1533 1533 1532 1532 1532 1531
1520 1521 1522 1522 1523 1523 1524 1524 1525 1526 1526 1526 1527 1527 1527 1527 1526 1526 1524 1524 1525 1525 1525 1525 1525 1525 1525 1525 1525 1525 1525 1526 1527 1527 1527 1528 1528 1528 1527 1527 1526 1526 1525
1514 1515 1515 1516 1516 1517 1517 1518 1518 1519 1519 1520 1520 1520 1520 1520 1519 1519 1518 1517 1517 1518 1518 1518 1517 1517 1517 1517 1518 1518 1518 1519 1519 1520 1521 1521 1521 1521 1521 1521 1520 1519 1519
1508 1509 1509 1509 1510 1510 1511 1511 1511 1512 1512 1513 1513 1513 1513 1513 1513 1513 1512 1511 1510 1510 1510 1510 1510 1510 1510 1510 1510 1511 1511 1512 1512 1513 1514 1515 1515 1514 1514 1513 1513 1512 1511
1502 1503 1503 1503 1503 1504 1504 1504 1504 1505 1505 1506 1506 1506 1506 1506 1506 1506 1506 1506 1504 1503 1503 1503 1503 1503 1503 1503 1503 1504 1504 1505 1506 1506 1507 1507 1508 1507 1507 1506 1505 1505 1504
1497 1497 1497 1497 1497 1497 1498 1498 1498 1498 1499 1499 1499 1499 1499 1499 1500 1500 1500 1500 1500 1497 1496 1496 1496 1496 1496 1496 1497 1497 1498 1499 1500 1500 1500 1500 1501 1500 1500 1499 1498 1498 1497
1491 1491 1491 1491 1491 1491 1492 1492 1492 1492 1493 1493 1493 1493 1493 1493 1493 1493 1493 1493 1493 1492 1491 1490 1490 1491 1491 1491 1491 1492 1492 1493 1493 1494 1494 1494 1494 1493 1493 1492 1492 1491 1490
1487 1487 1486 1486 1486 1486 1486 1487 1487 1487 1487 1487 1487 1488 1487 1488 1487 1488 1487 1487 1487 1487 1486 1486 1486 1485 1485 1486 1486 1486 1486 1487 1487 1488 1488 1488 1487 1487 1487 1486 1485 1484 1484
1483 1483 1482 1482 1482 1482 1482 1482 1482 1482 1482 1483 1483 1483 1483 1483 1483 1483 1482 1482 1482 1482 1482 1481 1481 1481 1481 1481 1481 1481 1482 1482 1482 1482 1482 1482 1481 1481 1481 1480 1479 1478 1477
1479 1479 1479 1479 1479 1479 1479 1479 1479 1479 1479 1479 1479 1479 1479 1479 1479 1479 1478 1478 1478 1478 1478 1478 1477 1477 1477 1477 1477 1477 1477 1477 1477 1477 1477 1476 1475 1475 1474 1474 1473 1472 1471
1477 1477 1476 1476 1476 1476 1476 1476 1476 1476 1476 1476 1476 1476 1476 1476 1476 1476 1475 1475 1475 1474 1474 1474 1474 1473 1473 1473 1473 1473 1473 1473 1472 1472 1471 1471 1470 1469 1469 1468 1466 1465 1464
1475 1475 1475 1474 1474 1474 1474 1474 1474 1474 1474 1474 1474 1474 1473 1473 1473 1473 1473 1472 1472 1472 1471 1471 1471 1470 1470 1470 1470 1469 1469 1468 1468 1467 1466 1466 1465 1464 1463 1462 1460 1459 1458
1474 1474 1473 1473 1473 1473 1473 1473 1473 1473 1472 1472 1472 1472 1472 1472 1471 1471 1471 1470 1470 1470 1469 1469 1468 1468 1467 1467 1466 1466 1465 1464 1463 1464 1462 1461 1460 1458 1457 1456 1454 1453 1451
1473 1473 1472 1472 1472 1472 1472 1472 1472 1472 1471 1471 1471 1471 1471 1470 1470 1470 1469 1469 1468 1467 1467 1467 1466 1465 1464 1464 1463 1463 1462 1461 1460 1459 1457 1454 1455 1453 1452 1449 1448 1447 1445
1472 1472 1472 1472 1472 1472 1472 1471 1471 1471 1471 1470 1470 1470 1470 1469 1469 1468 1467 1466 1466 1465 1464 1463 1463 1462 1462 1461 1460 1460 1458 1457 1456 1455 1453 1450 1448 1447 1445 1444 1442 1441 1440
1472 1472 1472 1472 1472 1472 1471 1471 1471 1471 1470 1470 1470 1469 1469 1468 1467 1466 1465 1464 1463 1462 1462 1461 1460 1459 1458 1458 1457 1456 1455 1453 1451 1450 1449 1446 1443 1440 1438 1437 1436 1435 1434
1471 1471 1472 1472 1472 1472 1471 1471 1471 1470 1470 1469 1469 1468 1467 1466 1465 1464 1463 1462 1461 1460 1459 1458 1457 1456 1455 1455 1454 1453 1451 1450 1448 1446 1444 1442 1439 1436 1431 1429 1429 1429 1427